SKW3743 KSAN-KLAX

Flight info

Callsign SKW3743
Flight time 0h 27m
Altitude 10000
Route CWARD2 SLI
Aircraft E75L/M-SDE3GILORVW/S

Departure

Time 2026-05-05 02:17
Airport San Diego International Airport (KSAN)

Arrival

Time 2026-05-05 02:44
Airport Los Angeles International Airport (KLAX)
Time Latitude Longitude Altitude Speed Heading
2026-05-05 01:42 32.73338 -117.20331 19 ft 0 kts 265°
2026-05-05 01:47 32.73338 -117.20334 19 ft 0 kts 265°
2026-05-05 02:04 32.73340 -117.20311 19 ft 4 kts 261°
2026-05-05 02:04 32.73343 -117.20280 19 ft 4 kts 281°
2026-05-05 02:04 32.73334 -117.20268 19 ft 1 kts 345°
2026-05-05 02:05 32.73331 -117.20267 23 ft 0 kts 345°
2026-05-05 02:07 32.73332 -117.20268 23 ft 1 kts 345°
2026-05-05 02:08 32.73336 -117.20269 19 ft 2 kts 345°
2026-05-05 02:08 32.73343 -117.20271 19 ft 6 kts 345°
2026-05-05 02:08 32.73380 -117.20285 19 ft 0 kts 336°
2026-05-05 02:10 32.73394 -117.20287 19 ft 4 kts 355°
2026-05-05 02:10 32.73399 -117.20287 19 ft 1 kts
2026-05-05 02:10 32.73414 -117.20286 19 ft 0 kts 12°
2026-05-05 02:10 32.73421 -117.20283 19 ft 0 kts 18°
2026-05-05 02:11 32.73439 -117.20275 19 ft 2 kts 22°
2026-05-05 02:12 32.73450 -117.20270 19 ft 0 kts 22°
2026-05-05 02:12 32.73521 -117.20233 20 ft 11 kts 21°
2026-05-05 02:12 32.73540 -117.20143 20 ft 15 kts 108°
2026-05-05 02:13 32.73507 -117.20012 20 ft 19 kts 103°
2026-05-05 02:13 32.73462 -117.19826 21 ft 26 kts 107°
2026-05-05 02:13 32.73412 -117.19616 22 ft 28 kts 106°
2026-05-05 02:13 32.73356 -117.19390 21 ft 30 kts 105°
2026-05-05 02:14 32.73296 -117.19139 20 ft 32 kts 106°
2026-05-05 02:14 32.73240 -117.18906 22 ft 28 kts 106°
2026-05-05 02:14 32.73184 -117.18680 25 ft 29 kts 104°
2026-05-05 02:14 32.73127 -117.18442 21 ft 31 kts 105°
2026-05-05 02:15 32.73074 -117.18225 18 ft 23 kts 107°
2026-05-05 02:15 32.73027 -117.18031 18 ft 26 kts 107°
2026-05-05 02:15 32.72980 -117.17835 15 ft 17 kts 105°
2026-05-05 02:15 32.72954 -117.17723 16 ft 15 kts 102°
2026-05-05 02:16 32.72977 -117.17587 20 ft 13 kts 55°
2026-05-05 02:16 32.73023 -117.17577 18 ft 3 kts 308°
2026-05-05 02:16 32.73059 -117.17742 18 ft 59 kts 285°
2026-05-05 02:16 32.73260 -117.18563 32 ft 144 kts 283°
2026-05-05 02:17 32.73572 -117.19821 826 ft 169 kts 285°
2026-05-05 02:17 32.73906 -117.21262 1752 ft 188 kts 283°
2026-05-05 02:17 32.74278 -117.22787 2907 ft 198 kts 287°
2026-05-05 02:17 32.74897 -117.24303 4124 ft 209 kts 301°
2026-05-05 02:18 32.75854 -117.25681 5311 ft 233 kts 312°
2026-05-05 02:18 32.76995 -117.27138 6497 ft 251 kts 308°
2026-05-05 02:18 32.78107 -117.28852 7441 ft 267 kts 303°
2026-05-05 02:18 32.79128 -117.30554 8107 ft 250 kts 302°
2026-05-05 02:19 32.80138 -117.32279 8875 ft 260 kts 302°
2026-05-05 02:19 32.81247 -117.34024 9658 ft 269 kts 304°
2026-05-05 02:19 32.82429 -117.35816 9995 ft 283 kts 304°
2026-05-05 02:19 32.83630 -117.37651 10008 ft 279 kts 304°
2026-05-05 02:20 32.84819 -117.39472 10000 ft 278 kts 304°
2026-05-05 02:20 32.86000 -117.41295 10002 ft 277 kts 303°
2026-05-05 02:20 32.87176 -117.43117 9990 ft 277 kts 303°
2026-05-05 02:20 32.88349 -117.44937 9995 ft 277 kts 303°
2026-05-05 02:21 32.89519 -117.46754 9995 ft 277 kts 303°
2026-05-05 02:21 32.90691 -117.48576 9992 ft 277 kts 303°
2026-05-05 02:21 32.91864 -117.50399 9999 ft 278 kts 303°
2026-05-05 02:21 32.93037 -117.52224 10003 ft 278 kts 303°
2026-05-05 02:22 32.94212 -117.54054 10008 ft 278 kts 303°
2026-05-05 02:22 32.95385 -117.55879 10008 ft 278 kts 303°
2026-05-05 02:22 32.96557 -117.57708 10009 ft 278 kts 303°
2026-05-05 02:22 32.97731 -117.59535 10005 ft 278 kts 303°
2026-05-05 02:23 32.98903 -117.61365 9990 ft 278 kts 303°
2026-05-05 02:23 33.00078 -117.63197 9970 ft 278 kts 303°
2026-05-05 02:23 33.01249 -117.65026 9971 ft 278 kts 303°
2026-05-05 02:23 33.02405 -117.66831 9970 ft 278 kts 303°
2026-05-05 02:24 33.03578 -117.68664 9967 ft 278 kts 303°
2026-05-05 02:24 33.04749 -117.70495 9969 ft 278 kts 303°
2026-05-05 02:24 33.05923 -117.72321 9972 ft 278 kts 304°
2026-05-05 02:24 33.07303 -117.73954 9977 ft 282 kts 315°
2026-05-05 02:25 33.08802 -117.75468 9972 ft 283 kts 315°
2026-05-05 02:25 33.10300 -117.76990 9966 ft 283 kts 315°
2026-05-05 02:25 33.11798 -117.78508 9965 ft 282 kts 315°
2026-05-05 02:25 33.13291 -117.80026 9963 ft 282 kts 315°
2026-05-05 02:26 33.14783 -117.81543 9968 ft 282 kts 315°
2026-05-05 02:26 33.16273 -117.83059 9965 ft 282 kts 315°
2026-05-05 02:26 33.17764 -117.84575 9963 ft 282 kts 315°
2026-05-05 02:26 33.19327 -117.85993 9961 ft 286 kts 328°
2026-05-05 02:27 33.21236 -117.86735 9982 ft 292 kts 344°
2026-05-05 02:27 33.23237 -117.87210 9985 ft 294 kts 345°
2026-05-05 02:27 33.25239 -117.87698 9956 ft 294 kts 345°
2026-05-05 02:27 33.27238 -117.88181 9962 ft 293 kts 345°
2026-05-05 02:28 33.29234 -117.88671 9964 ft 293 kts 344°
2026-05-05 02:28 33.31228 -117.89162 9958 ft 293 kts 344°
2026-05-05 02:28 33.33222 -117.89657 9960 ft 293 kts 344°
2026-05-05 02:28 33.35217 -117.90150 9961 ft 293 kts 344°
2026-05-05 02:29 33.37213 -117.90648 9962 ft 293 kts 345°
2026-05-05 02:29 33.37884 -117.90814 9965 ft 293 kts 345°
2026-05-05 02:29 33.39864 -117.91357 9975 ft 291 kts 340°
2026-05-05 02:29 33.41792 -117.92086 9979 ft 291 kts 339°
2026-05-05 02:30 33.43717 -117.92805 9970 ft 289 kts 339°
2026-05-05 02:30 33.45637 -117.93514 9982 ft 289 kts 339°
2026-05-05 02:30 33.47559 -117.94220 9975 ft 289 kts 339°
2026-05-05 02:30 33.49481 -117.94922 9983 ft 289 kts 339°
2026-05-05 02:31 33.51407 -117.95625 9974 ft 289 kts 339°
2026-05-05 02:31 33.53350 -117.96335 9713 ft 292 kts 339°
2026-05-05 02:31 33.55285 -117.97040 9432 ft 289 kts 340°
2026-05-05 02:31 33.57201 -117.97738 9163 ft 286 kts 339°
2026-05-05 02:32 33.59071 -117.98420 8905 ft 284 kts 340°
2026-05-05 02:32 33.60985 -117.99117 8642 ft 283 kts 340°
2026-05-05 02:32 33.62863 -117.99802 8386 ft 282 kts 340°
2026-05-05 02:32 33.64707 -118.00476 8144 ft 281 kts 340°
2026-05-05 02:33 33.66575 -118.01159 7843 ft 281 kts 340°
2026-05-05 02:33 33.68443 -118.01842 7479 ft 280 kts 340°
2026-05-05 02:33 33.70319 -118.02527 7122 ft 278 kts 340°
2026-05-05 02:33 33.72156 -118.03199 6780 ft 275 kts 340°
2026-05-05 02:34 33.73952 -118.03857 6440 ft 272 kts 340°
2026-05-05 02:34 33.75758 -118.04517 6051 ft 270 kts 340°
2026-05-05 02:34 33.77547 -118.05081 6065 ft 261 kts 347°
2026-05-05 02:34 33.79306 -118.05326 7069 ft 248 kts 351°
2026-05-05 02:35 33.81099 -118.05541 7360 ft 270 kts 351°
2026-05-05 02:35 33.82993 -118.05784 7116 ft 279 kts 351°
2026-05-05 02:35 33.84931 -118.06040 6736 ft 279 kts 350°
2026-05-05 02:35 33.86841 -118.06287 6455 ft 274 kts 350°
2026-05-05 02:36 33.88725 -118.06554 6123 ft 271 kts 350°
2026-05-05 02:36 33.90569 -118.06822 6041 ft 265 kts 349°
2026-05-05 02:36 33.92407 -118.07099 6046 ft 267 kts 350°
2026-05-05 02:36 33.94255 -118.07377 6189 ft 266 kts 350°
2026-05-05 02:37 33.95466 -118.07585 6337 ft 252 kts 346°
2026-05-05 02:37 33.97026 -118.08211 6635 ft 218 kts 335°
2026-05-05 02:37 33.98135 -118.09151 6799 ft 186 kts 292°
2026-05-05 02:37 33.98177 -118.10629 6485 ft 185 kts 249°
2026-05-05 02:38 33.97561 -118.12082 5984 ft 197 kts 241°
2026-05-05 02:38 33.96931 -118.13425 5879 ft 174 kts 240°
2026-05-05 02:38 33.96362 -118.14664 5363 ft 165 kts 245°
2026-05-05 02:38 33.95966 -118.15955 4771 ft 164 kts 252°
2026-05-05 02:39 33.95782 -118.17304 4141 ft 165 kts 263°
2026-05-05 02:39 33.95662 -118.18682 3619 ft 162 kts 264°
2026-05-05 02:39 33.95545 -118.20005 3210 ft 155 kts 263°
2026-05-05 02:39 33.95417 -118.21259 2820 ft 147 kts 262°
2026-05-05 02:40 33.95281 -118.22460 2542 ft 143 kts 261°
2026-05-05 02:40 33.95150 -118.23627 2397 ft 139 kts 264°
2026-05-05 02:40 33.95071 -118.24773 2240 ft 136 kts 264°
2026-05-05 02:40 33.94976 -118.25940 2094 ft 145 kts 263°
2026-05-05 02:41 33.94811 -118.27179 1885 ft 156 kts 258°
2026-05-05 02:41 33.94657 -118.28477 1682 ft 150 kts 263°
2026-05-05 02:41 33.94566 -118.29666 1500 ft 139 kts 263°
2026-05-05 02:41 33.94491 -118.30829 1353 ft 137 kts 264°
2026-05-05 02:42 33.94403 -118.31923 1228 ft 125 kts 261°
2026-05-05 02:42 33.94282 -118.32943 1032 ft 122 kts 262°
2026-05-05 02:42 33.94168 -118.33966 824 ft 123 kts 262°
2026-05-05 02:42 33.94063 -118.34998 651 ft 125 kts 263°
2026-05-05 02:43 33.93969 -118.36005 536 ft 119 kts 266°
2026-05-05 02:43 33.93861 -118.37029 373 ft 123 kts 262°
2026-05-05 02:43 33.93761 -118.38052 192 ft 121 kts 260°
2026-05-05 02:43 33.93659 -118.39010 91 ft 104 kts 260°
2026-05-05 02:44 33.93584 -118.39703 92 ft 63 kts 262°
2026-05-05 02:44 33.93543 -118.40184 92 ft 53 kts 263°
2026-05-05 02:44 33.93499 -118.40583 92 ft 44 kts 264°
2026-05-05 02:44 33.93481 -118.40933 92 ft 35 kts 275°
2026-05-05 02:45 33.93531 -118.41155 96 ft 15 kts 291°
2026-05-05 02:45 33.93550 -118.41236 93 ft 4 kts 308°
2026-05-05 02:45 33.93551 -118.41238 94 ft 0 kts 313°
2026-05-05 02:46 33.93557 -118.41244 94 ft 2 kts 319°
2026-05-05 02:47 33.93608 -118.41264 93 ft 10 kts 353°
2026-05-05 02:47 33.93692 -118.41276 94 ft 14 kts 353°
2026-05-05 02:47 33.93798 -118.41252 93 ft 18 kts
2026-05-05 02:47 33.93931 -118.41273 92 ft 21 kts 353°
2026-05-05 02:48 33.94082 -118.41294 93 ft 23 kts 353°
2026-05-05 02:48 33.94248 -118.41319 92 ft 25 kts 353°
2026-05-05 02:48 33.94428 -118.41345 93 ft 27 kts 353°
2026-05-05 02:48 33.94592 -118.41369 91 ft 21 kts 352°
2026-05-05 02:49 33.94688 -118.41319 92 ft 15 kts 82°
2026-05-05 02:49 33.94714 -118.41185 91 ft 18 kts 71°
2026-05-05 02:49 33.94737 -118.41029 91 ft 20 kts 84°
2026-05-05 02:49 33.94755 -118.40850 91 ft 23 kts 84°
2026-05-05 02:50 33.94772 -118.40667 91 ft 15 kts 84°
2026-05-05 02:50 33.94730 -118.40570 91 ft 12 kts 155°
2026-05-05 02:50 33.94667 -118.40553 92 ft 7 kts 141°
2026-05-05 02:50 33.94655 -118.40494 90 ft 2 kts 95°
2026-05-05 02:51 33.94654 -118.40480 90 ft 1 kts 97°
2026-05-05 02:51 33.94653 -118.40477 90 ft 0 kts 96°